Total_Precipitation_Accumulation
1.94 1.84 2.73 4.14 4.38 3.65 3.09 2.59 1.96 1.55 1.05 0.87 0.81 0.94 1.24 1.63 1.96 2.29 2.59 2.46 1.63 1.35 1.40 2.14 3.04 2.95 2.65 2.63 2.62 2.49 2.44 2.37 2.15 2.00 1.85 1.73 1.57 1.51 1.54 1.54 1.55 1.48 1.38 1.49 1.71 1.89 1.96 1.90 1.92
1.56 2.22 3.28 4.56 4.09 3.25 2.95 2.51 1.91 1.29 0.80 0.63 0.56 0.66 0.79 0.77 0.83 1.43 2.48 2.49 1.39 1.10 1.20 1.69 2.47 2.42 2.34 2.34 2.24 2.17 2.05 1.92 1.95 1.92 1.74 1.65 1.57 1.59 1.63 1.59 1.51 1.43 1.36 1.44 1.64 1.83 1.82 1.85 1.93
1.74 2.89 3.87 4.08 3.27 2.99 2.91 2.28 1.54 0.87 0.56 0.50 0.50 0.52 0.62 0.89 1.05 1.57 2.24 1.80 1.12 0.94 1.14 1.72 2.26 2.20 2.20 2.14 1.95 1.94 1.79 1.67 1.68 1.73 1.65 1.65 1.55 1.52 1.54 1.53 1.51 1.50 1.48 1.50 1.62 1.66 1.68 1.80 1.87
1.94 3.08 3.41 3.15 2.80 2.36 2.01 1.65 1.21 1.00 0.64 0.39 0.37 0.49 0.57 0.96 1.27 1.49 1.56 1.27 1.05 1.05 1.12 1.49 1.96 1.96 1.95 1.87 1.81 1.79 1.68 1.68 1.60 1.54 1.54 1.59 1.54 1.48 1.43 1.50 1.47 1.44 1.63 1.76 1.74 1.74 1.84 1.83 1.88
2.47 3.15 3.01 2.60 2.33 1.92 1.45 1.13 0.96 0.98 0.78 0.44 0.33 0.54 0.82 1.22 1.35 1.21 1.12 0.94 0.91 0.98 0.98 1.22 1.75 1.75 1.71 1.71 1.74 1.79 1.73 1.71 1.60 1.50 1.55 1.67 1.61 1.52 1.47 1.53 1.53 1.47 1.60 1.82 1.80 1.75 1.78 1.75 1.82
2.74 2.79 2.78 2.45 2.29 1.88 1.45 1.04 0.82 0.78 0.63 0.43 0.35 0.57 0.93 1.25 1.42 1.26 1.11 1.11 1.07 1.09 1.00 1.11 1.67 1.78 1.66 1.70 1.67 1.70 1.77 1.72 1.60 1.51 1.48 1.55 1.54 1.46 1.46 1.46 1.56 1.56 1.61 1.75 1.76 1.67 1.66 1.53 1.55
2.66 2.58 2.37 1.99 2.13 2.30 1.68 1.04 0.88 0.86 0.69 0.48 0.35 0.61 0.95 1.20 1.20 1.15 1.22 1.29 1.29 1.36 1.30 1.34 1.49 1.56 1.68 1.71 1.63 1.78 1.90 1.80 1.60 1.45 1.41 1.36 1.41 1.40 1.38 1.40 1.53 1.55 1.58 1.67 1.68 1.63 1.65 1.53 1.45
2.09 2.14 1.95 1.94 2.18 2.39 1.58 1.04 0.85 0.79 0.70 0.36 0.31 0.59 0.90 0.89 0.89 1.04 1.19 1.23 1.23 1.31 1.27 1.32 1.42 1.42 1.44 1.54 1.74 1.93 2.25 2.14 1.75 1.49 1.32 1.31 1.26 1.26 1.37 1.34 1.45 1.52 1.58 1.70 1.74 1.75 1.67 1.63 1.54
1.91 2.24 2.36 2.43 2.44 2.13 1.42 1.22 0.94 0.63 0.55 0.41 0.37 0.49 0.58 0.57 0.72 0.86 1.01 1.03 1.00 0.99 1.05 1.16 1.23 1.25 1.33 1.31 1.52 1.94 2.33 2.35 1.94 1.59 1.45 1.24 0.94 0.93 1.15 1.32 1.54 1.65 1.71 1.85 1.95 1.92 1.80 1.65 1.57
1.84 2.20 2.15 1.89 1.58 1.31 1.15 1.06 0.90 0.77 0.78 0.61 0.51 0.49 0.51 0.55 0.76 0.85 0.87 0.95 0.90 0.79 0.75 0.78 0.82 0.93 1.02 1.02 1.32 1.62 1.67 1.86 1.60 1.52 1.40 1.26 1.20 1.14 0.99 1.13 1.55 1.79 1.78 1.87 1.97 1.99 1.74 1.40 1.25
1.61 1.68 1.50 1.37 1.05 0.85 0.85 0.76 0.66 0.69 0.78 0.67 0.63 0.50 0.54 0.60 0.70 0.74 0.71 0.70 0.74 0.74 0.70 0.64 0.65 0.72 0.86 0.98 1.16 1.37 1.52 1.67 1.65 1.58 1.52 1.54 1.52 1.19 1.05 1.12 1.26 1.43 1.50 1.45 1.53 1.57 1.38 1.19 1.14
1.57 1.30 1.16 1.10 0.77 0.76 0.77 0.64 0.57 0.56 0.53 0.39 0.48 0.44 0.48 0.55 0.59 0.57 0.58 0.61 0.60 0.63 0.72 0.67 0.53 0.55 0.63 0.73 0.92 1.09 1.30 1.49 1.52 1.33 1.25 1.39 1.43 1.25 1.14 1.28 1.33 1.39 1.46 1.50 1.49 1.41 1.25 1.04 1.04
1.49 1.41 1.15 1.01 0.77 0.76 0.70 0.63 0.54 0.46 0.41 0.33 0.39 0.49 0.55 0.61 0.61 0.55 0.52 0.56 0.56 0.62 0.70 0.73 0.64 0.58 0.61 0.67 0.75 0.79 1.09 1.25 1.38 1.43 1.21 1.31 1.37 1.31 1.21 1.19 1.35 1.33 1.39 1.42 1.47 1.49 1.35 1.24 1.16
1.36 1.27 1.04 0.94 0.84 0.75 0.69 0.61 0.56 0.47 0.41 0.38 0.44 0.55 0.59 0.64 0.65 0.61 0.56 0.51 0.48 0.59 0.67 0.70 0.71 0.69 0.69 0.70 0.70 0.69 0.76 0.84 0.92 0.88 0.85 1.03 1.18 1.20 1.21 1.12 1.19 1.27 1.43 1.63 1.68 1.51 1.42 1.36 1.32
1.08 1.19 1.26 1.05 0.87 0.69 0.70 0.82 0.61 0.53 0.51 0.48 0.50 0.53 0.58 0.57 0.58 0.58 0.54 0.51 0.50 0.55 0.62 0.67 0.72 0.78 0.79 0.80 0.85 0.81 0.75 0.77 0.75 0.70 0.71 0.81 0.93 1.02 1.14 1.19 1.17 1.20 1.43 1.67 1.83 1.68 1.55 1.40 1.40
1.14 1.33 1.63 1.31 1.09 0.85 0.93 1.11 0.58 0.52 0.57 0.54 0.49 0.47 0.46 0.44 0.47 0.51 0.52 0.53 0.55 0.55 0.53 0.55 0.57 0.65 0.70 0.75 0.81 0.89 0.89 0.87 0.84 0.85 0.81 0.77 0.90 1.04 1.16 1.24 1.20 1.21 1.40 1.65 1.87 1.91 1.88 1.78 1.69
1.30 1.28 1.29 1.26 1.09 0.90 0.89 0.84 0.50 0.48 0.58 0.59 0.51 0.47 0.44 0.34 0.35 0.40 0.41 0.46 0.49 0.48 0.42 0.41 0.45 0.47 0.50 0.55 0.63 0.76 0.84 0.90 0.97 0.98 0.97 0.98 1.05 1.08 1.20 1.40 1.43 1.41 1.53 1.64 1.68 1.80 1.81 1.86 1.85
1.00 0.91 0.93 1.05 0.89 0.86 0.81 0.60 0.44 0.46 0.52 0.54 0.57 0.52 0.45 0.32 0.26 0.26 0.30 0.35 0.38 0.39 0.39 0.39 0.41 0.39 0.38 0.42 0.52 0.65 0.72 0.79 0.98 1.05 1.09 1.36 1.50 1.31 1.27 1.42 1.45 1.48 1.68 1.75 1.85 2.05 1.98 1.87 1.95
0.70 0.65 0.74 0.76 0.64 0.77 0.72 0.54 0.44 0.40 0.39 0.41 0.47 0.48 0.44 0.33 0.22 0.15 0.14 0.20 0.26 0.25 0.24 0.29 0.32 0.38 0.37 0.32 0.38 0.52 0.65 0.77 0.92 1.10 1.14 1.36 1.49 1.42 1.44 1.46 1.48 1.51 1.61 1.69 1.87 2.22 2.23 2.02 1.90
0.65 0.68 0.72 0.66 0.58 0.66 0.72 0.59 0.46 0.36 0.32 0.34 0.37 0.40 0.38 0.30 0.20 0.14 0.11 0.14 0.19 0.23 0.18 0.19 0.22 0.30 0.37 0.40 0.45 0.60 0.79 0.91 1.03 1.21 1.26 1.35 1.38 1.38 1.32 1.48 1.58 1.55 1.69 1.77 1.96 2.26 2.48 2.23 2.02
0.58 0.66 0.63 0.64 0.67 0.62 0.70 0.76 0.57 0.40 0.35 0.34 0.33 0.34 0.32 0.23 0.19 0.17 0.14 0.12 0.12 0.16 0.13 0.17 0.24 0.38 0.53 0.69 0.92 1.18 1.48 1.65 1.57 1.46 1.52 1.62 1.68 1.63 1.58 1.66 1.78 1.70 1.75 1.86 1.92 2.03 2.51 2.65 2.39
0.66 0.44 0.43 0.52 0.73 0.75 0.62 0.82 0.59 0.41 0.40 0.40 0.36 0.31 0.27 0.23 0.21 0.18 0.16 0.14 0.15 0.20 0.26 0.35 0.47 0.63 0.78 0.98 1.21 1.47 1.73 1.93 1.97 2.02 2.06 2.02 1.96 1.84 1.72 1.75 1.79 1.80 1.87 1.84 1.71 1.88 2.34 2.82 2.87
0.52 0.44 0.41 0.48 0.66 0.64 0.57 0.60 0.52 0.42 0.48 0.49 0.47 0.41 0.36 0.34 0.32 0.30 0.28 0.26 0.26 0.37 0.50 0.61 0.83 0.99 1.12 1.18 1.27 1.49 1.59 1.68 1.80 1.97 2.03 2.04 1.98 1.86 1.70 1.65 1.74 1.79 1.87 1.86 1.92 2.10 2.40 2.69 2.97
0.43 0.50 0.53 0.59 0.68 0.64 0.44 0.45 0.54 0.44 0.49 0.58 0.55 0.47 0.42 0.39 0.36 0.38 0.42 0.42 0.45 0.66 0.89 1.01 1.12 1.22 1.20 1.18 1.19 1.32 1.46 1.56 1.66 1.83 1.90 1.85 1.74 1.71 1.63 1.60 1.60 1.57 1.65 1.74 1.93 2.17 2.31 2.50 2.75
0.41 0.62 0.78 0.79 0.72 0.51 0.29 0.35 0.45 0.36 0.34 0.42 0.45 0.42 0.38 0.32 0.31 0.36 0.44 0.57 0.76 0.99 1.20 1.33 1.33 1.23 1.09 1.06 1.12 1.17 1.33 1.50 1.56 1.58 1.60 1.60 1.54 1.49 1.47 1.47 1.45 1.36 1.35 1.47 1.67 1.94 1.99 2.10 2.33
0.35 0.44 0.67 0.73 0.62 0.44 0.32 0.46 0.49 0.36 0.27 0.24 0.24 0.27 0.31 0.35 0.42 0.44 0.50 0.68 0.96 1.21 1.44 1.70 1.67 1.43 1.21 1.15 1.20 1.23 1.33 1.41 1.41 1.33 1.34 1.37 1.33 1.27 1.19 1.21 1.25 1.23 1.24 1.27 1.40 1.57 1.61 1.68 1.90
0.32 0.33 0.35 0.51 0.45 0.41 0.35 0.42 0.38 0.26 0.21 0.19 0.22 0.27 0.37 0.42 0.52 0.61 0.73 0.81 1.02 1.23 1.56 1.84 1.89 1.68 1.52 1.43 1.35 1.35 1.28 1.21 1.14 1.05 1.05 1.07 1.10 1.03 0.99 1.05 1.17 1.22 1.18 1.15 1.23 1.36 1.38 1.50 1.67
0.26 0.28 0.31 0.53 0.61 0.56 0.41 0.42 0.34 0.23 0.18 0.19 0.30 0.36 0.43 0.51 0.53 0.68 0.95 1.16 1.38 1.32 1.45 1.70 1.64 1.56 1.54 1.54 1.50 1.40 1.25 1.14 1.10 1.02 1.02 0.98 1.02 0.95 0.95 0.97 0.98 1.01 1.02 1.06 1.21 1.37 1.44 1.45 1.52
0.24 0.27 0.29 0.40 0.43 0.59 0.66 0.55 0.32 0.27 0.28 0.33 0.42 0.44 0.49 0.57 0.60 0.75 0.93 1.10 1.27 1.36 1.36 1.41 1.41 1.41 1.39 1.30 1.24 1.11 0.91 0.81 0.82 0.84 0.82 0.77 0.78 0.75 0.75 0.72 0.77 0.90 0.91 0.91 1.06 1.16 1.18 1.31 1.40
0.27 0.30 0.33 0.51 0.52 0.51 0.74 0.76 0.43 0.41 0.45 0.54 0.60 0.64 0.68 0.69 0.73 0.83 0.91 1.06 1.14 1.14 1.18 1.26 1.19 1.17 1.13 1.02 0.91 0.78 0.64 0.59 0.63 0.64 0.61 0.53 0.55 0.51 0.56 0.60 0.60 0.78 0.95 0.98 1.02 1.02 1.02 1.13 1.23